User: anonymous   Login
Location: Feydey
(46.3431°N, 7.0106°E)
Time: 03:23:11
(UTC+00:00)
Language:

Meteor 2-1 Rocket - Orbit

View from above orbital plane
View from above orbital plane
View from above satellite
View from above satellite

Ground track
Ground track

The orbit data is extracted from the following two-line orbital elements,

1 08027U 75064B   21268.16590242  .00000038  00000-0  15056-4 0  9999
2 08027  81.3010 352.1486 0053778 178.8298 181.3007 14.07371451371761
Epoch (UTC): 25 September 2021 03:58:53
Eccentricity: 0.0053778
inclination: 81.3010°
perigee height: 829 km
apogee height: 907 km
right ascension of ascending node: 352.1486°
argument of perigee: 178.8298°
revolutions per day: 14.07371451
mean anomaly at epoch: 181.3007°
orbit number at epoch: 37176

The dashed part of the orbit path shows where the satellite is in the earth's shadow,  

DLR